Location: Nairn
(57.5833°N, 3.8667°W)
Time: 04:56:06
(UTC+00:00)

Explorer 7 - Pass Details

Date: 27 November 2020
Orbit: 484 x 678 km, 50.3° (Epoch: 17 January)

Event Time Altitude Azimuth Distance (km) Brightness Sun altitude
Exits shadow 04:33:36 21° 132° (SE) 1,284 9.0 -29.7°
Drops below altitude 10° 04:35:29 10° 110° (ESE) 1,809 10.2 -29.5°
Sets 04:37:53 0° 97° (E) 2,668 11.5 -29.1°
